Date String (YYYY-MM-DD hh:mm:ss) UTC,Instrument flags,absolute air pressure of the measurement (hPa),sample flow rate (lpm),inlet stack bypass flow (lpm),air temperature of the measurement (°C),ambient temperature measured by the external sensor (°C),aerosol sample conditioner tube jacket temperature (°C),OPC LED temperature (°C),internal box temperature (°C),relative humidity of the measurement (%),span deviation,mass concentration of particles derived from Lorenz-Mie calculation of OPC scattering (μg/m³),mass concentration of particles derived from Lorenz-Mie calculation of OPC scattering (μg/m³),mass concentration of particles derived from Lorenz-Mie calculation of OPC scattering (μg/m³)
DateTimeUTC,F1_M11,P_M11,Q1_M11,Q2_M11,T1_M11,T2_M11,T3_M11,T4_M11,T5_M11,U1_M11,ZSPAN_M11,X2_M11,X0_M11,X1_M11
2024-06-08 12:00:00,SystemResetWarning,0829.5,5.00,000.00,030.7,030.2,000.0,039.0,032.4,022.4,0000.0,0004.28,0017.51,0002.91
2024-06-08 12:01:00,SystemResetWarning,0829.5,5.00,000.00,030.8,030.2,000.0,039.0,032.5,022.4,0000.0,0004.32,0016.65,0002.92
2024-06-08 12:02:00,SystemResetWarning,0829.6,5.00,000.00,030.8,030.2,000.0,039.0,032.5,022.1,0000.0,0004.33,0016.77,0002.92
2024-06-08 12:03:00,SystemResetWarning,0829.6,5.00,000.00,030.8,030.2,000.0,039.0,032.5,022.0,0000.0,0004.31,0016.69,0002.93
2024-06-08 12:04:00,SystemResetWarning,0829.6,5.00,000.00,030.8,030.3,000.0,039.1,032.5,022.2,0000.0,0004.28,0016.32,0002.93
2024-06-08 12:05:00,SystemResetWarning,0829.7,5.00,000.00,030.9,030.3,000.0,039.1,032.6,022.2,0000.0,0004.26,0016.29,0002.92
2024-06-08 12:06:00,SystemResetWarning,0829.7,5.00,000.00,030.9,030.3,000.0,039.1,032.6,022.2,0000.0,0004.21,0016.12,0002.91
2024-06-08 12:07:00,SystemResetWarning,0829.7,5.00,000.00,030.9,030.3,000.0,039.1,032.6,022.2,0000.0,0004.18,0015.59,0002.90
2024-06-08 12:08:00,SystemResetWarning,0829.6,5.00,000.00,030.9,030.2,000.0,039.2,032.5,022.2,0000.0,0004.13,0015.71,0002.88
2024-06-08 12:09:00,SystemResetWarning,0829.5,4.98,000.00,030.7,028.0,000.0,039.2,031.5,022.5,0000.0,0004.06,0016.87,0002.87
2024-06-08 12:10:00,SystemResetWarning,0829.4,5.02,000.00,030.2,026.6,000.0,039.2,030.7,023.1,0000.0,0004.00,0015.34,0002.85
2024-06-08 12:11:00,SystemResetWarning,0829.4,5.00,000.00,030.0,026.8,000.0,039.1,030.7,023.5,0000.0,0003.92,0014.97,0002.83
2024-06-08 12:12:00,SystemResetWarning,0829.4,5.00,000.00,029.9,027.2,000.0,038.9,030.9,023.6,0000.0,0003.88,0014.94,0002.79
2024-06-08 12:13:00,SystemResetWarning,0829.5,5.00,000.00,029.9,027.6,000.0,038.8,031.2,023.5,0000.0,0003.83,0015.15,0002.80
2024-06-08 12:14:00,SystemResetWarning,0829.5,5.00,000.00,029.9,028.0,000.0,038.7,031.3,023.5,0000.0,0003.80,0014.44,0002.77
2024-06-08 12:15:00,SystemResetWarning,0829.5,5.00,000.00,029.9,028.3,000.0,038.7,031.4,023.6,0000.0,0003.82,0015.20,0002.75
2024-06-08 12:16:00,SystemResetWarning,0829.6,5.00,000.00,030.0,028.6,000.0,038.6,031.5,023.5,0000.0,0003.83,0015.17,0002.76
2024-06-08 12:17:00,SystemResetWarning,0829.6,5.00,000.00,030.0,028.8,000.0,038.6,031.6,023.5,0000.0,0003.85,0014.83,0002.75
2024-06-08 12:18:00,SystemResetWarning,0829.6,5.00,000.00,030.0,029.0,000.0,038.6,031.7,023.4,0000.0,0003.91,0014.61,0002.73
2024-06-08 12:19:00,SystemResetWarning,0829.5,4.99,000.00,030.1,029.1,000.0,038.5,031.7,023.4,0000.0,0003.94,0014.47,0002.73
2024-06-08 12:20:00,SystemResetWarning,0829.5,4.99,000.00,030.1,029.2,000.0,038.5,031.8,023.4,0000.0,0003.97,0013.78,0002.73
2024-06-08 12:21:00,SystemResetWarning,0829.5,5.00,000.00,030.1,029.3,000.0,038.5,031.8,023.3,0000.0,0004.05,0013.29,0002.71
2024-06-08 12:22:00,SystemResetWarning,0829.5,5.01,000.00,030.2,029.4,000.0,038.5,031.9,023.3,0000.0,0004.10,0012.55,0002.70
2024-06-08 12:23:00,SystemResetWarning,0829.5,5.01,000.00,030.2,029.5,000.0,038.5,031.9,023.3,0000.0,0004.09,0012.63,0002.70
2024-06-08 12:24:00,SystemResetWarning,0829.4,5.01,000.00,030.2,029.6,000.0,038.5,032.0,023.2,0000.0,0004.09,0011.83,0002.69
2024-06-08 12:25:00,SystemResetWarning,0829.5,5.00,000.00,030.3,029.6,000.0,038.6,032.0,023.1,0000.0,0004.13,0012.38,0002.70
2024-06-08 12:26:00,SystemResetWarning,0829.5,4.99,000.00,030.3,029.7,000.0,038.6,032.0,023.0,0000.0,0004.12,0012.57,0002.71
2024-06-08 12:27:00,SystemResetWarning,0829.4,5.00,000.00,030.4,029.7,000.0,038.6,032.1,022.9,0000.0,0004.12,0012.56,0002.69
2024-06-08 12:28:00,SystemResetWarning,0829.4,4.99,000.00,030.4,029.8,000.0,038.6,032.1,022.9,0000.0,0004.20,0013.43,0002.70
2024-06-08 12:29:00,SystemResetWarning,0829.4,4.99,000.00,030.4,029.8,000.0,038.6,032.1,022.9,0000.0,0004.23,0013.54,0002.73
2024-06-08 12:30:00,SystemResetWarning,0829.5,5.00,000.00,030.4,029.9,000.0,038.6,032.1,023.0,0000.0,0004.24,0013.79,0002.73
2024-06-08 12:31:00,SystemResetWarning,0829.6,5.01,000.00,030.5,029.9,000.0,038.7,032.2,023.1,0000.0,0004.26,0013.24,0002.74
2024-06-08 12:32:00,SystemResetWarning,0829.6,5.00,000.00,030.5,029.9,000.0,038.7,032.2,023.0,0000.0,0004.29,0013.60,0002.73
2024-06-08 12:33:00,SystemResetWarning,0829.7,4.99,000.00,030.5,029.9,000.0,038.7,032.2,023.1,0000.0,0004.26,0014.30,0002.74
2024-06-08 12:34:00,SystemResetWarning,0829.6,4.99,000.00,030.5,030.0,000.0,038.8,032.2,023.2,0000.0,0004.27,0014.97,0002.75
2024-06-08 12:35:00,SystemResetWarning,0829.7,5.00,000.00,030.6,030.0,000.0,038.8,032.3,022.9,0000.0,0004.26,0015.26,0002.75
2024-06-08 12:36:00,SystemResetWarning,0829.7,5.00,000.00,030.6,030.0,000.0,038.8,032.3,022.5,0000.0,0004.23,0016.66,0002.77
2024-06-08 12:37:00,SystemResetWarning,0829.7,5.00,000.00,030.6,030.0,000.0,038.8,032.3,022.1,0000.0,0004.22,0017.05,0002.82
2024-06-08 12:38:00,SystemResetWarning,0829.7,5.01,000.00,030.6,030.0,000.0,038.9,032.4,022.1,0000.0,0004.26,0018.78,0002.87
2024-06-08 12:39:00,SystemResetWarning,0829.7,5.00,000.00,030.7,030.1,000.0,038.9,032.4,021.8,0000.0,0004.23,0018.44,0002.91
2024-06-08 12:40:00,SystemResetWarning,0829.7,5.01,000.00,030.7,030.1,000.0,038.9,032.4,021.8,0000.0,0004.18,0018.69,0002.95
2024-06-08 12:41:00,SystemResetWarning,0829.7,5.00,000.00,030.7,030.1,000.0,038.9,032.4,021.7,0000.0,0004.20,0018.63,0003.02
2024-06-08 12:42:00,SystemResetWarning,0829.7,5.00,000.00,030.7,030.1,000.0,039.0,032.4,021.7,0000.0,0004.18,0018.63,0003.08
2024-06-08 12:43:00,SystemResetWarning,0829.7,4.99,000.00,030.7,030.1,000.0,039.0,032.4,021.6,0000.0,0004.15,0017.96,0003.14
2024-06-08 12:44:00,SystemResetWarning,0829.7,4.99,000.00,030.7,030.1,000.0,039.0,032.4,021.6,0000.0,0004.13,0017.33,0003.18
2024-06-08 12:45:00,SystemResetWarning,0829.7,5.00,000.00,030.8,030.1,000.0,039.0,032.4,021.6,0000.0,0004.17,0016.46,0003.22
2024-06-08 12:46:00,SystemResetWarning,0829.6,5.00,000.00,030.8,030.2,000.0,039.0,032.4,021.8,0000.0,0004.21,0016.81,0003.27
2024-06-08 12:47:00,SystemResetWarning,0829.6,5.00,000.00,030.8,030.2,000.0,039.0,032.5,021.7,0000.0,0004.25,0017.29,0003.30
2024-06-08 12:48:00,SystemResetWarning,0829.7,5.00,000.00,030.8,030.2,000.0,039.0,032.4,021.8,0000.0,0004.28,0016.76,0003.32
2024-06-08 12:49:00,SystemResetWarning,0829.6,5.00,000.00,030.8,030.2,000.0,039.1,032.4,021.8,0000.0,0004.26,0015.75,0003.33
2024-06-08 12:50:00,SystemResetWarning,0829.7,5.00,000.00,030.8,030.2,000.0,039.1,032.5,021.9,0000.0,0004.28,0015.34,0003.36
2024-06-08 12:51:00,SystemResetWarning,0829.6,5.00,000.00,030.8,030.2,000.0,039.1,032.5,021.9,0000.0,0004.28,0015.49,0003.37
2024-06-08 12:52:00,SystemResetWarning,0829.6,5.00,000.00,030.9,030.2,000.0,039.1,032.5,021.9,0000.0,0004.37,0015.32,0003.39
2024-06-08 12:53:00,SystemResetWarning,0829.6,5.00,000.00,030.9,030.3,000.0,039.2,032.5,022.0,0000.0,0004.38,0015.12,0003.39
2024-06-08 12:54:00,SystemResetWarning,0829.6,5.01,000.00,030.9,030.3,000.0,039.2,032.6,021.9,0000.0,0004.44,0015.20,0003.38
2024-06-08 12:55:00,SystemResetWarning,0829.7,4.99,000.00,030.9,030.3,000.0,039.2,032.6,021.7,0000.0,0004.50,0015.88,0003.38
2024-06-08 12:56:00,SystemResetWarning,0829.7,5.00,000.00,030.9,030.3,000.0,039.2,032.6,021.6,0000.0,0004.54,0015.82,0003.37
2024-06-08 12:57:00,SystemResetWarning,0829.6,4.99,000.00,030.9,030.3,000.0,039.2,032.6,021.6,0000.0,0004.54,0016.09,0003.37
2024-06-08 12:58:00,SystemResetWarning,0829.7,5.00,000.00,031.0,030.3,000.0,039.2,032.6,021.7,0000.0,0004.54,0014.61,0003.35
2024-06-08 12:59:00,SystemResetWarning,0829.7,4.99,000.00,030.9,029.8,000.0,039.3,032.3,021.7,0000.0,0004.48,0013.38,0003.34
